CXA672 KSFO-SBGR

Flight info

Callsign CXA672
Flight time N/A
Altitude 35000
Route WESLA5 YYUNG DCT LAX J1 TIJ UT18 HMO UJ4 ELQ J42 TRC UJ46 CDR UL655 ASOKU/N0467F370 UL655 SIMAT/N0459F390 UL655 DIKAL UZ52 DIMIP UM411 PALCA UZ87 OBLUG UZ42 ZARES
Aircraft A343/H-SDE2E3FGHIJ4J5M1RWXY/LB1D1

Departure

Time 2026-04-30 19:00
Airport San Francisco International Airport (KSFO)

Arrival

Time N/A
Airport São Paulo/Guarulhos–Governor André Franco Montoro International Airport (SBGR)
Time Latitude Longitude Altitude Speed Heading
2026-04-30 18:17 37.62093 -122.38763 20 ft 0 kts 208°
2026-04-30 18:46 37.62106 -122.38756 21 ft 3 kts 178°
2026-04-30 18:46 37.62126 -122.38757 20 ft 3 kts 175°
2026-04-30 18:47 37.62145 -122.38760 19 ft 3 kts 175°
2026-04-30 18:47 37.62164 -122.38762 20 ft 3 kts 175°
2026-04-30 18:47 37.62183 -122.38764 19 ft 3 kts 175°
2026-04-30 18:47 37.62203 -122.38768 19 ft 3 kts 141°
2026-04-30 18:48 37.62212 -122.38777 19 ft 0 kts 115°
2026-04-30 18:52 37.62210 -122.38775 19 ft 2 kts 119°
2026-04-30 18:53 37.62192 -122.38735 18 ft 8 kts 119°
2026-04-30 18:53 37.62156 -122.38654 21 ft 13 kts 119°
2026-04-30 18:53 37.62109 -122.38546 24 ft 15 kts 118°
2026-04-30 18:53 37.62055 -122.38417 30 ft 17 kts 117°
2026-04-30 18:54 37.61996 -122.38275 27 ft 19 kts 117°
2026-04-30 18:54 37.61928 -122.38110 29 ft 23 kts 118°
2026-04-30 18:54 37.61850 -122.37924 28 ft 25 kts 117°
2026-04-30 18:54 37.61782 -122.37721 26 ft 25 kts 110°
2026-04-30 18:55 37.61722 -122.37522 26 ft 24 kts 114°
2026-04-30 18:55 37.61574 -122.37163 32 ft 23 kts 118°
2026-04-30 18:55 37.61500 -122.36986 26 ft 23 kts 117°
2026-04-30 18:56 37.61311 -122.36649 21 ft 24 kts 118°
2026-04-30 18:56 37.61229 -122.36455 21 ft 25 kts 117°
2026-04-30 18:56 37.61151 -122.36266 23 ft 24 kts 118°
2026-04-30 18:57 37.61054 -122.36014 25 ft 13 kts 103°
2026-04-30 18:57 37.61089 -122.35918 23 ft 5 kts 39°
2026-04-30 18:57 37.61101 -122.35907 25 ft 3 kts 36°
2026-04-30 18:58 37.61153 -122.35871 23 ft 4 kts 15°
2026-04-30 18:58 37.61178 -122.35882 26 ft 4 kts 325°
2026-04-30 18:58 37.61200 -122.35921 23 ft 12 kts 303°
2026-04-30 18:59 37.61632 -122.36937 31 ft 119 kts 297°
2026-04-30 19:00 37.63301 -122.40654 939 ft 178 kts 296°
2026-04-30 19:00 37.63879 -122.42048 1489 ft 183 kts 297°
2026-04-30 19:00 37.64845 -122.45323 1864 ft 221 kts 265°
2026-04-30 19:01 37.63308 -122.47895 2433 ft 247 kts 201°
2026-04-30 19:01 37.61566 -122.48151 2858 ft 259 kts 176°
2026-04-30 19:02 37.57912 -122.47855 4106 ft 268 kts 176°
2026-04-30 19:02 37.54152 -122.47660 5426 ft 272 kts 177°
2026-04-30 19:03 37.50346 -122.47516 6736 ft 275 kts 178°
2026-04-30 19:03 37.46472 -122.47904 7840 ft 285 kts 188°
2026-04-30 19:04 37.42510 -122.48653 8989 ft 292 kts 188°
2026-04-30 19:04 37.38440 -122.49417 10078 ft 299 kts 189°
2026-04-30 19:05 37.34146 -122.50218 10585 ft 325 kts 189°
2026-04-30 19:05 37.29505 -122.51082 11070 ft 349 kts 189°
2026-04-30 19:06 37.24540 -122.52003 11538 ft 372 kts 188°
2026-04-30 19:06 37.21941 -122.52484 11846 ft 381 kts 189°
2026-04-30 19:06 37.16633 -122.53466 12634 ft 392 kts 189°
2026-04-30 19:07 37.11195 -122.54472 13600 ft 398 kts 189°
2026-04-30 19:07 37.08444 -122.54980 14040 ft 401 kts 189°
2026-04-30 19:08 37.02861 -122.55742 14917 ft 408 kts 178°
2026-04-30 19:08 36.97369 -122.54025 15794 ft 413 kts 152°
2026-04-30 19:08 36.94895 -122.52286 16232 ft 416 kts 148°
2026-04-30 19:09 36.89887 -122.48554 17078 ft 422 kts 148°
2026-04-30 19:09 36.87350 -122.46677 17487 ft 425 kts 148°
2026-04-30 19:09 36.84799 -122.44796 17904 ft 428 kts 149°
2026-04-30 19:10 36.79621 -122.40992 18683 ft 435 kts 149°
2026-04-30 19:10 36.74373 -122.37148 19429 ft 440 kts 149°
2026-04-30 19:11 36.71722 -122.35209 19802 ft 443 kts 149°
2026-04-30 19:11 36.66371 -122.31301 20512 ft 448 kts 149°
2026-04-30 19:11 36.63670 -122.29330 20868 ft 451 kts 149°
2026-04-30 19:12 36.60962 -122.27356 21246 ft 453 kts 149°
2026-04-30 19:12 36.58231 -122.25367 21597 ft 456 kts 149°
2026-04-30 19:12 36.55487 -122.23370 21942 ft 458 kts 149°
2026-04-30 19:13 36.49947 -122.19344 22632 ft 463 kts 149°
2026-04-30 19:13 36.44350 -122.15283 23293 ft 469 kts 149°
2026-04-30 19:13 36.41527 -122.13237 23600 ft 471 kts 149°
2026-04-30 19:14 36.38690 -122.11182 23885 ft 473 kts 149°
2026-04-30 19:14 36.35837 -122.09118 24148 ft 476 kts 149°
2026-04-30 19:14 36.32973 -122.07049 24415 ft 478 kts 149°
2026-04-30 19:14 36.30124 -122.04992 24662 ft 480 kts 149°
2026-04-30 19:15 36.27199 -122.02881 24923 ft 482 kts 149°
2026-04-30 19:15 36.21371 -121.98681 25435 ft 486 kts 150°
2026-04-30 19:15 36.18490 -121.96608 25676 ft 488 kts 150°
2026-04-30 19:16 36.15549 -121.94493 25913 ft 489 kts 150°
2026-04-30 19:16 36.12597 -121.92372 26167 ft 491 kts 150°
2026-04-30 19:16 36.06669 -121.88119 26642 ft 495 kts 150°
2026-04-30 19:17 36.03687 -121.85978 26874 ft 497 kts 149°
2026-04-30 19:17 35.98321 -121.80619 27295 ft 499 kts 129°
2026-04-30 19:17 35.96147 -121.77284 27558 ft 500 kts 127°
2026-04-30 19:18 35.92619 -121.71616 27933 ft 502 kts 126°
2026-04-30 19:18 35.89760 -121.67045 28207 ft 504 kts 127°
2026-04-30 19:18 35.87609 -121.63616 28403 ft 506 kts 127°
2026-04-30 19:19 35.85448 -121.60180 28609 ft 508 kts 127°
2026-04-30 19:19 35.83283 -121.56742 28812 ft 509 kts 127°
2026-04-30 19:19 35.78922 -121.49833 29241 ft 511 kts 127°
2026-04-30 19:20 35.76744 -121.46389 29521 ft 510 kts 127°
2026-04-30 19:20 35.74562 -121.42940 29799 ft 510 kts 127°
2026-04-30 19:20 35.70194 -121.36051 30260 ft 510 kts 127°
2026-04-30 19:21 35.68014 -121.32618 30468 ft 510 kts 127°
2026-04-30 19:21 35.63648 -121.25748 30883 ft 510 kts 127°
2026-04-30 19:22 35.59274 -121.18882 31265 ft 509 kts 127°
2026-04-30 19:22 35.52716 -121.08615 31834 ft 509 kts 127°
2026-04-30 19:23 35.46397 -120.98175 32385 ft 508 kts 123°
2026-04-30 19:24 35.42374 -120.91057 32727 ft 507 kts 124°
2026-04-30 19:24 35.40353 -120.87514 32898 ft 507 kts 124°
2026-04-30 19:24 35.36287 -120.80474 33012 ft 502 kts 124°
2026-04-30 19:25 35.30285 -120.70192 33009 ft 496 kts 124°
2026-04-30 19:26 35.22254 -120.56479 33008 ft 496 kts 124°
2026-04-30 19:27 35.16214 -120.46200 33013 ft 496 kts 124°
2026-04-30 19:28 35.10167 -120.35938 33019 ft 496 kts 124°
2026-04-30 19:29 35.02101 -120.22287 33013 ft 495 kts 124°
2026-04-30 19:30 34.94019 -120.08671 33009 ft 496 kts 124°
2026-04-30 19:31 34.85928 -119.95083 32992 ft 495 kts 124°
2026-04-30 19:31 34.79855 -119.84926 32989 ft 495 kts 124°
2026-04-30 19:32 34.75800 -119.78160 32973 ft 494 kts 124°
2026-04-30 19:32 34.71746 -119.71409 32984 ft 494 kts 124°
2026-04-30 19:33 34.67700 -119.64664 32960 ft 494 kts 124°
2026-04-30 19:33 34.63643 -119.57921 32987 ft 494 kts 124°
2026-04-30 19:34 34.59572 -119.51197 32990 ft 494 kts 124°
2026-04-30 19:35 34.53472 -119.41136 32983 ft 494 kts 124°
2026-04-30 19:35 34.49430 -119.34465 32984 ft 494 kts 124°
2026-04-30 19:36 34.45360 -119.27770 32970 ft 493 kts 124°
2026-04-30 19:36 34.39261 -119.17755 32976 ft 492 kts 124°
2026-04-30 19:37 34.35197 -119.11098 32980 ft 492 kts 124°
2026-04-30 19:37 34.31125 -119.04443 32980 ft 492 kts 124°
2026-04-30 19:38 34.27059 -118.97810 32967 ft 491 kts 124°
2026-04-30 19:38 34.22982 -118.91170 32976 ft 490 kts 124°
2026-04-30 19:39 34.18920 -118.84567 32962 ft 490 kts 124°
2026-04-30 19:39 34.14855 -118.77969 32954 ft 490 kts 124°
2026-04-30 19:40 34.10785 -118.71376 32961 ft 490 kts 123°
2026-04-30 19:40 34.06712 -118.64788 32969 ft 490 kts 123°
2026-04-30 19:41 34.02671 -118.58266 32978 ft 488 kts 124°
2026-04-30 19:41 33.98602 -118.51714 32980 ft 488 kts 123°
2026-04-30 19:42 33.94531 -118.45168 32983 ft 489 kts 123°
2026-04-30 19:42 33.90387 -118.38667 32984 ft 490 kts 126°
2026-04-30 19:43 33.86063 -118.32327 32981 ft 489 kts 126°
2026-04-30 19:44 33.79576 -118.22857 32975 ft 489 kts 126°
2026-04-30 19:44 33.75273 -118.16521 32971 ft 489 kts 125°
2026-04-30 19:45 33.70975 -118.10184 32964 ft 490 kts 125°
2026-04-30 19:45 33.66668 -118.03848 32974 ft 489 kts 125°
2026-04-30 19:46 33.62367 -117.97535 32973 ft 488 kts 125°
2026-04-30 19:46 33.58064 -117.91229 32974 ft 489 kts 125°
2026-04-30 19:47 33.53756 -117.84926 32969 ft 489 kts 125°
2026-04-30 19:47 33.49440 -117.78623 32969 ft 489 kts 125°
2026-04-30 19:48 33.45123 -117.72330 32995 ft 489 kts 124°
2026-04-30 19:48 33.40792 -117.66026 32976 ft 491 kts 124°
2026-04-30 19:49 33.37180 -117.60778 32978 ft 492 kts 124°
2026-04-30 19:49 33.30650 -117.51310 32983 ft 492 kts 124°
2026-04-30 19:50 33.26199 -117.45105 32980 ft 495 kts 131°
2026-04-30 19:50 33.20508 -117.40397 32979 ft 504 kts 153°
2026-04-30 19:51 33.13947 -117.37364 32981 ft 508 kts 158°
2026-04-30 19:51 33.07264 -117.34620 32994 ft 509 kts 158°
2026-04-30 19:52 33.00565 -117.31879 32982 ft 509 kts 157°
2026-04-30 19:52 32.93876 -117.29098 32991 ft 509 kts 157°
2026-04-30 19:53 32.87192 -117.26301 33001 ft 509 kts 157°
2026-04-30 19:53 32.80562 -117.23376 33007 ft 506 kts 150°
2026-04-30 19:54 32.77532 -117.21311 33007 ft 499 kts 139°
2026-04-30 19:54 32.74848 -117.18743 32990 ft 493 kts 133°
2026-04-30 19:54 32.69815 -117.13242 32989 ft 489 kts 130°
2026-04-30 19:55 32.64919 -117.07668 33024 ft 487 kts 130°
2026-04-30 19:55 32.60013 -117.02102 32981 ft 489 kts 130°
2026-04-30 19:56 32.55136 -116.96481 33014 ft 486 kts 125°
2026-04-30 19:56 32.51201 -116.90107 33020 ft 477 kts 117°
2026-04-30 19:57 32.47604 -116.83510 33055 ft 476 kts 116°
2026-04-30 19:57 32.44049 -116.76891 33015 ft 477 kts 117°
2026-04-30 19:58 32.40466 -116.70266 33005 ft 478 kts 117°
2026-04-30 19:58 32.36862 -116.63649 32989 ft 478 kts 117°
2026-04-30 19:59 32.33281 -116.57093 32982 ft 478 kts 117°
2026-04-30 20:00 32.27877 -116.47219 32976 ft 476 kts 119°
2026-04-30 20:00 32.24278 -116.40657 32979 ft 476 kts 120°
2026-04-30 20:01 32.18872 -116.30798 32960 ft 476 kts 120°
2026-04-30 20:01 32.15269 -116.24238 32956 ft 477 kts 121°
2026-04-30 20:02 32.09852 -116.14406 32953 ft 477 kts 122°
2026-04-30 20:03 32.04411 -116.04560 32943 ft 478 kts 122°
2026-04-30 20:03 32.00775 -115.97994 32930 ft 479 kts 122°
2026-04-30 20:04 31.97133 -115.91426 32934 ft 478 kts 124°
2026-04-30 20:05 31.91677 -115.81611 32923 ft 478 kts 125°
2026-04-30 20:05 31.86200 -115.71797 32917 ft 479 kts 125°
2026-04-30 20:06 31.82546 -115.65254 32909 ft 478 kts 125°
2026-04-30 20:06 31.78897 -115.58729 32906 ft 477 kts 127°
2026-04-30 20:07 31.75246 -115.52219 32902 ft 478 kts 127°
2026-04-30 20:08 31.69743 -115.42432 32892 ft 479 kts 127°
2026-04-30 20:08 31.66067 -115.35904 32888 ft 479 kts 127°
2026-04-30 20:09 31.62413 -115.29432 32879 ft 479 kts 129°
2026-04-30 20:09 31.56907 -115.19686 32880 ft 478 kts 129°
2026-04-30 20:10 31.51374 -115.09925 32869 ft 479 kts 129°
2026-04-30 20:11 31.45830 -115.00168 32848 ft 479 kts 131°
2026-04-30 20:11 31.42144 -114.93690 32870 ft 477 kts 131°
2026-04-30 20:12 31.36627 -114.84024 32867 ft 476 kts 133°
2026-04-30 20:13 31.32941 -114.77582 32867 ft 476 kts 133°
2026-04-30 20:13 31.29259 -114.71152 32864 ft 476 kts 133°
2026-04-30 20:14 31.25565 -114.64716 32864 ft 476 kts 133°
2026-04-30 20:14 31.21868 -114.58286 32844 ft 476 kts 133°
2026-04-30 20:15 31.18161 -114.51852 32858 ft 479 kts 133°
2026-04-30 20:15 31.14432 -114.45385 32857 ft 480 kts 133°
2026-04-30 20:16 31.10702 -114.38919 32855 ft 480 kts 133°
2026-04-30 20:16 31.07004 -114.32515 32854 ft 478 kts 135°
2026-04-30 20:17 31.03287 -114.26108 32851 ft 477 kts 135°
2026-04-30 20:17 30.99577 -114.19715 32846 ft 477 kts 135°